Weather History for KEOE - October, 2012

Change the Weather History Date:

Thursday, October 25, 2012

  Actual Average (KFDW) Record (KFDW)
Temperature  
Mean Temperature 66 °F -  
Max Temperature 82 °F 72 °F 82 °F (2012)
Min Temperature 51 °F 47 °F 41 °F (2013)
Cooling Degree Days 2    
Growing Degree Days 16 (Base 50)    
Moisture  
Dew Point 57 °F    
Average Humidity 76    
Maximum Humidity 100    
Minimum Humidity 39    
Precipitation  
Precipitation 0.00 in - - ()
Sea Level Pressure  
Sea Level Pressure 30.13 in    
Wind  
Wind Speed 3 mph (ENE)    
Max Wind Speed 10 mph    
Max Gust Speed -    
Visibility 10 miles    
Events      
Averages and records for this station are not official NWS values.
T = Trace of Precipitation, MM = Missing Value Source: NWS Daily Summary

Daily Weather History Graph

Daily Weather History Graph

Search for Another Location

Airport or City:

Trip Planner

Search our weather history database for the weather conditions in past years. The results will help you decide how hot, cold, wet, or windy it might be!

Date:

Astronomy

Oct. 25, 2012 Rise Set
Actual Time 7:40 AM EDT 6:39 PM EDT
Civil Twilight 7:15 AM EDT 7:05 PM EDT
Nautical Twilight 6:45 AM EDT 7:34 PM EDT
Astronomical Twilight 6:16 AM EDT 8:04 PM EDT
Moon 4:17 PM EDT (10/25) 3:45 AM EDT (10/25)
Length of Visible Light 11h 50m
Length of Day
10h 59m
Waxing Gibbous, 84% of the Moon is Illuminated
Oct 25
Waxing Gibbous
Oct 29
Full
Nov 6
Last Quarter
Nov 13
New
Nov 20
First Quarter

Hourly Weather History & Observations

Time (EDT) Temp. Heat Index Dew Point Humidity Pressure Visibility Wind Dir Wind Speed Gust Speed Precip Events Conditions
12:15 AM 55.4 °F - 51.8 °F 88% 30.16 in 10.0 mi Calm Calm - N/A   Clear
12:55 AM 57.2 °F - 53.6 °F 88% 30.16 in 10.0 mi Calm Calm - N/A   Clear
1:15 AM 55.4 °F - 53.6 °F 94% 30.16 in 10.0 mi Calm Calm - N/A   Clear
1:35 AM 55.4 °F - 55.4 °F 100% 30.16 in 10.0 mi Calm Calm - N/A   Clear
1:55 AM 55.4 °F - 55.4 °F 100% 30.16 in 10.0 mi Calm Calm - N/A   Clear
2:15 AM 55.4 °F - 55.4 °F 100% 30.15 in 10.0 mi Calm Calm - N/A   Clear
2:35 AM 55.4 °F - 55.4 °F 100% 30.15 in 10.0 mi Calm Calm - N/A   Clear
2:55 AM 55.4 °F - 55.4 °F 100% 30.14 in 10.0 mi Calm Calm - N/A   Clear
3:15 AM 53.6 °F - 53.6 °F 100% 30.14 in 10.0 mi NNE 3.5 mph - N/A   Clear
3:35 AM 53.6 °F - 53.6 °F 100% 30.14 in 10.0 mi NE 4.6 mph - N/A   Clear
3:55 AM 53.6 °F - 53.6 °F 100% 30.14 in 10.0 mi NE 3.5 mph - N/A   Clear
4:15 AM 53.6 °F - 53.6 °F 100% 30.13 in 10.0 mi NNE 4.6 mph - N/A   Clear
4:35 AM 53.6 °F - 53.6 °F 100% 30.13 in 10.0 mi NNE 3.5 mph - N/A   Clear
4:55 AM 53.6 °F - 53.6 °F 100% 30.13 in 10.0 mi North 4.6 mph - N/A   Clear
5:15 AM 51.8 °F - 51.8 °F 100% 30.13 in 10.0 mi NNE 4.6 mph - N/A   Clear
5:55 AM 51.8 °F - 51.8 °F 100% 30.14 in 10.0 mi NNE 4.6 mph - N/A   Clear
6:15 AM 51.8 °F - 51.8 °F 100% 30.14 in 10.0 mi NNE 5.8 mph - N/A   Clear
6:35 AM 51.8 °F - 51.8 °F 100% 30.15 in 10.0 mi NNE 5.8 mph - N/A   Clear
6:55 AM 51.8 °F - 51.8 °F 100% 30.14 in 10.0 mi NNE 5.8 mph - N/A   Clear
7:15 AM 51.8 °F - 51.8 °F 100% 30.14 in 10.0 mi NE 4.6 mph - N/A   Clear
7:35 AM 51.8 °F - 51.8 °F 100% 30.15 in 10.0 mi NE 5.8 mph - N/A   Clear
7:55 AM 53.6 °F - 53.6 °F 100% 30.16 in 10.0 mi ENE 3.5 mph - N/A   Clear
8:15 AM 55.4 °F - 55.4 °F 100% 30.16 in 10.0 mi NE 4.6 mph - N/A   Clear
8:35 AM 55.4 °F - 55.4 °F 100% 30.16 in 10.0 mi NNE 5.8 mph - N/A   Clear
9:15 AM 60.8 °F - 57.2 °F 88% 30.18 in 10.0 mi NNE 5.8 mph - N/A   Clear
9:35 AM 62.6 °F - 59.0 °F 88% 30.18 in 10.0 mi NE 5.8 mph - N/A   Clear
9:55 AM 64.4 °F - 59.0 °F 83% 30.18 in 10.0 mi NE 6.9 mph - N/A   Clear
10:15 AM 68.0 °F - 59.0 °F 73% 30.18 in 10.0 mi NE 5.8 mph - N/A   Clear
10:35 AM 69.8 °F - 60.8 °F 73% 30.18 in 10.0 mi ENE 4.6 mph - N/A   Clear
10:55 AM 69.8 °F - 60.8 °F 73% 30.18 in 10.0 mi NE 4.6 mph - N/A   Clear
11:15 AM 71.6 °F - 60.8 °F 69% 30.18 in 10.0 mi NNE 5.8 mph - N/A   Clear
11:35 AM 73.4 °F - 60.8 °F 65% 30.18 in 10.0 mi NE 6.9 mph - N/A   Clear
11:55 AM 73.4 °F - 60.8 °F 65% 30.17 in 10.0 mi ENE 5.8 mph - N/A   Mostly Cloudy
12:15 PM 77.0 °F - 60.8 °F 57% 30.17 in 10.0 mi East 6.9 mph - N/A   Overcast
12:35 PM 77.0 °F - 59.0 °F 54% 30.16 in 10.0 mi ESE 8.1 mph - N/A   Mostly Cloudy
12:55 PM 78.8 °F - 59.0 °F 51% 30.16 in 10.0 mi Calm Calm - N/A   Overcast
1:15 PM 78.8 °F - 59.0 °F 51% 30.14 in 10.0 mi ESE 5.8 mph - N/A   Overcast
2:15 PM 80.6 °F 80.8 °F 57.2 °F 45% 30.11 in 10.0 mi SE 6.9 mph - N/A   Clear
2:35 PM 82.4 °F 82.0 °F 57.2 °F 42% 30.11 in 10.0 mi East 9.2 mph - N/A   Scattered Clouds
2:55 PM 82.4 °F 82.0 °F 57.2 °F 42% 30.10 in 10.0 mi ESE 6.9 mph - N/A   Scattered Clouds
3:15 PM 82.4 °F 82.0 °F 57.2 °F 42% 30.10 in 10.0 mi East 10.4 mph - N/A   Scattered Clouds
3:35 PM 80.6 °F 80.8 °F 57.2 °F 45% 30.09 in 10.0 mi East 6.9 mph - N/A   Scattered Clouds
3:55 PM 82.4 °F 81.7 °F 55.4 °F 39% 30.09 in 10.0 mi East 4.6 mph - N/A   Mostly Cloudy
4:15 PM 80.6 °F 80.8 °F 57.2 °F 45% 30.08 in 10.0 mi NE 3.5 mph - N/A   Mostly Cloudy
4:35 PM 80.6 °F 80.8 °F 57.2 °F 45% 30.08 in 10.0 mi Calm Calm - N/A   Mostly Cloudy
4:55 PM 80.6 °F 80.8 °F 57.2 °F 45% 30.08 in 10.0 mi East 5.8 mph - N/A   Mostly Cloudy
5:15 PM 78.8 °F - 57.2 °F 47% 30.08 in 10.0 mi East 4.6 mph - N/A   Mostly Cloudy
5:35 PM 78.8 °F - 59.0 °F 51% 30.09 in 10.0 mi SE 4.6 mph - N/A   Mostly Cloudy
5:55 PM 78.8 °F - 59.0 °F 51% 30.10 in 10.0 mi Calm Calm - N/A   Mostly Cloudy
6:15 PM 78.8 °F - 59.0 °F 51% 30.10 in 10.0 mi Calm Calm - N/A   Mostly Cloudy
6:35 PM 75.2 °F - 60.8 °F 61% 30.10 in 10.0 mi NE 3.5 mph - N/A   Mostly Cloudy
6:55 PM 73.4 °F - 59.0 °F 61% 30.11 in 10.0 mi Calm Calm - N/A   Mostly Cloudy
7:15 PM 71.6 °F - 60.8 °F 69% 30.11 in 10.0 mi East 3.5 mph - N/A   Overcast
7:35 PM 71.6 °F - 60.8 °F 69% 30.11 in 10.0 mi ENE 3.5 mph - N/A   Scattered Clouds
7:55 PM 71.6 °F - 60.8 °F 69% 30.11 in 10.0 mi East 3.5 mph - N/A   Clear
8:15 PM 71.6 °F - 60.8 °F 69% 30.11 in 10.0 mi East 3.5 mph - N/A   Clear
8:35 PM 71.6 °F - 60.8 °F 69% 30.11 in 10.0 mi East 4.6 mph - N/A   Clear
9:15 PM 68.0 °F - 60.8 °F 78% 30.11 in 10.0 mi East 4.6 mph - N/A   Clear
9:35 PM 69.8 °F - 60.8 °F 73% 30.11 in 10.0 mi East 3.5 mph - N/A   Clear
9:55 PM 69.8 °F - 60.8 °F 73% 30.11 in 10.0 mi East 4.6 mph - N/A   Clear
10:15 PM 69.8 °F - 60.8 °F 73% 30.11 in 10.0 mi East 4.6 mph - N/A   Clear
10:35 PM 68.0 °F - 60.8 °F 78% 30.11 in 10.0 mi East 3.5 mph - N/A   Clear
10:55 PM 68.0 °F - 60.8 °F 78% 30.11 in 10.0 mi East 3.5 mph - N/A   Clear
11:15 PM 68.0 °F - 60.8 °F 78% 30.11 in 10.0 mi East 3.5 mph - N/A   Clear
11:35 PM 66.2 °F - 60.8 °F 83% 30.11 in 10.0 mi ESE 3.5 mph - N/A   Clear